Weather History for Moron de la Frontera, Spain

Change the Weather History Date:

Monday, December 31, 2012

  Actual Average Record
Temperature  
Mean Temperature 44 °F -  
Max Temperature 55 °F 59 °F 68 °F (2006)
Min Temperature 32 °F 39 °F 32 °F (2011)
Degree Days  
Heating Degree Days 22    
Moisture  
Dew Point 40 °F    
Average Humidity 89    
Maximum Humidity 100    
Minimum Humidity 67    
Precipitation  
Precipitation 0.00 in - - ()
Sea Level Pressure  
Sea Level Pressure 30.33 in    
Wind  
Wind Speed 1 mph ()    
Max Wind Speed 6 mph    
Max Gust Speed -    
Visibility 5.0 miles    
Events      
Averages and records for this station are not official NWS values.
T = Trace of Precipitation, MM = Missing Value Source: Averaged Metar Reports

Daily Weather History Graph

Daily Weather History Graph

Search for Another Location

Airport:

Trip Planner

Search our weather history database for the weather conditions in past years. The results will help you decide how hot, cold, wet, or windy it might be!

Date:

Astronomy

Dec. 31, 2012 Rise Set
Actual Time 8:36 AM CET 6:15 PM CET
Civil Twilight 8:07 AM CET 6:44 PM CET
Nautical Twilight 7:34 AM CET 7:16 PM CET
Astronomical Twilight 7:02 AM CET 7:48 PM CET
Moon 9:27 PM CET (12/31) 10:14 AM CET (12/31)
Length of Visible Light 10h 37m
Length of Day
9h 39m
Waning Gibbous, 92% of the Moon is Illuminated
Dec 31
Waning Gibbous
Jan 5
Last Quarter
Jan 11
New
Jan 19
First Quarter
Jan 27
Full

Hourly Weather History & Observations

Time (CET) Temp. Windchill Dew Point Humidity Pressure Visibility Wind Dir Wind Speed Gust Speed Precip Events Conditions
12:00 AM 41.0 °F - 39.2 °F 93% 30.45 in - Variable 1.2 mph - N/A   Clear
1:00 AM 39.2 °F - 37.4 °F 93% 30.42 in - ENE 2.3 mph - N/A   Clear
2:00 AM 37.4 °F - 37.4 °F 100% 30.39 in - Calm Calm - N/A   Clear
3:00 AM 39.2 °F - 37.4 °F 93% 30.39 in - East 1.2 mph - N/A   Clear
4:00 AM 35.6 °F 31.7 °F 35.6 °F 100% 30.36 in - NNE 4.6 mph - N/A   Clear
5:00 AM 37.4 °F 34.9 °F 37.4 °F 100% 30.36 in - NE 3.5 mph - N/A   Clear
6:00 AM 35.6 °F - 35.6 °F 100% 30.36 in - Calm Calm - N/A   Clear
7:00 AM 35.6 °F - 35.6 °F 100% 30.36 in - East 1.2 mph - N/A   Clear
8:00 AM 32.0 °F - 32.0 °F 100% 30.36 in 6.2 mi Calm Calm - N/A   Unknown
8:25 AM 33.8 °F - 33.8 °F 100% 30.36 in 2.5 mi Calm Calm - N/A   Mist
9:00 AM 33.8 °F - 33.8 °F 100% 30.36 in - Calm Calm - N/A   Mist
10:00 AM 37.4 °F - 37.4 °F 100% 30.36 in 2.5 mi Calm Calm - N/A   Mist
11:00 AM 42.8 °F - 41.0 °F 93% 30.36 in 2.8 mi Calm Calm - N/A   Mist
11:25 AM 44.6 °F - 42.8 °F 93% 30.36 in 3.7 mi Variable 1.2 mph - N/A   Unknown
12:00 PM 48.2 °F - 44.6 °F 87% 30.36 in 5.0 mi Variable 1.2 mph - N/A   Unknown
1:00 PM 53.6 °F - 44.6 °F 72% 30.33 in 6.2 mi Calm Calm - N/A   Partly Cloudy
2:00 PM 55.4 °F - 46.4 °F 72% 30.30 in - Calm Calm - N/A   Clear
3:00 PM 55.4 °F - 46.4 °F 72% 30.27 in - Variable 2.3 mph - N/A   Clear
4:00 PM 55.4 °F - 44.6 °F 67% 30.27 in - West 4.6 mph - N/A   Clear
5:00 PM 55.4 °F - 46.4 °F 72% 30.24 in - Variable 2.3 mph - N/A   Clear
6:00 PM 53.6 °F - 44.6 °F 72% 30.24 in - WSW 2.3 mph - N/A   Clear
7:00 PM 50.0 °F - 44.6 °F 82% 30.24 in 6.2 mi West 3.5 mph - N/A   Partly Cloudy
8:00 PM 46.4 °F 44.3 °F 42.8 °F 87% 30.24 in 6.2 mi SSW 4.6 mph - N/A   Partly Cloudy
9:00 PM 46.4 °F 44.3 °F 42.8 °F 87% 30.24 in 6.2 mi South 4.6 mph - N/A   Partly Cloudy
10:00 PM 48.2 °F - 42.8 °F 82% 30.24 in 6.2 mi South 5.8 mph - N/A   Partly Cloudy
11:00 PM 46.4 °F - 44.6 °F 93% 30.24 in 6.2 mi South 2.3 mph - N/A   Scattered Clouds